GPS BIIF-8 (40294 NORAD) Tracking and Keplerian Element Data

This shows tracking and keplerian element data for the satellite.

Feedback or suggestion? Click here.




ElementValue
Catalog40294
NameGPS BIIF-8
Epoch Orbit7520
Epoch Day34.34542114
Epoch Year2025
RAAN50.2402
Inclination56.6159
Eccentricity0.0055051
Argument of Perigee63.8847
Mean Anonmoly296.7233
Mean Motion2.00574446
Decay Rate-3.7E-07
L11 40294U 14068A 25034.34542114 -.00000037 00000+0 00000+0 0 9995
L22 40294 56.6159 50.2402 0055051 63.8847 296.7233 2.00574446 75206



Live tracking and technical data element details for GPS BIIF-8 (NORAD 40294). GPS BIIF-8 can be tracked NOW for your location showing map with azimuth and elevation plus other details from your city location.







IsCatalogInMostPopularTable: catalog: 40294, numindb: 599
Update: records affected: 1



GetName: 40294 GPS BIIF-8

Hit Count: updated at: Fri, 16 May 2025 11:27:11 GMT